TimeEST,TemperatureF,Dew PointF,Humidity,Sea Level PressureIn,VisibilityMPH,Wind Direction,Wind SpeedMPH,Gust SpeedMPH,PrecipitationIn,Events,Conditions,WindDirDegrees,DateUTC
12:15 AM,46.4,42.8,87,30.41,10.0,SE,3.5,-,N/A,,Overcast,130,2013-11-22 05:15:00
12:35 AM,46.4,42.8,87,30.40,10.0,Calm,Calm,-,N/A,,Overcast,0,2013-11-22 05:35:00
12:55 AM,46.4,42.8,87,30.39,10.0,Calm,Calm,-,N/A,,Overcast,0,2013-11-22 05:55:00
1:15 AM,46.4,42.8,87,30.39,10.0,SSE,3.5,-,N/A,,Overcast,150,2013-11-22 06:15:00
1:35 AM,46.4,42.8,87,30.38,10.0,Calm,Calm,-,N/A,,Overcast,0,2013-11-22 06:35:00
1:55 AM,46.4,42.8,87,30.36,10.0,ESE,5.8,-,N/A,,Scattered Clouds,110,2013-11-22 06:55:00
2:15 AM,46.4,44.6,93,30.36,10.0,East,3.5,-,N/A,,Mostly Cloudy,80,2013-11-22 07:15:00
2:35 AM,48.2,44.6,87,30.36,10.0,Calm,Calm,-,N/A,,Overcast,0,2013-11-22 07:35:00
2:55 AM,48.2,46.4,93,30.34,10.0,South,3.5,-,N/A,,Overcast,170,2013-11-22 07:55:00
3:15 AM,50.0,48.2,94,30.34,10.0,Calm,Calm,-,N/A,,Overcast,0,2013-11-22 08:15:00
3:35 AM,50.0,48.2,94,30.33,10.0,Calm,Calm,-,N/A,,Overcast,0,2013-11-22 08:35:00
3:55 AM,50.0,48.2,94,30.34,10.0,NW,3.5,-,N/A,,Overcast,310,2013-11-22 08:55:00
4:15 AM,48.2,46.4,93,30.33,10.0,Calm,Calm,-,N/A,,Overcast,0,2013-11-22 09:15:00
4:35 AM,48.2,48.2,100,30.33,10.0,Calm,Calm,-,N/A,,Overcast,0,2013-11-22 09:35:00
4:55 AM,48.2,48.2,100,30.33,10.0,Calm,Calm,-,N/A,,Overcast,0,2013-11-22 09:55:00
5:15 AM,48.2,48.2,100,30.32,10.0,Calm,Calm,-,N/A,,Overcast,0,2013-11-22 10:15:00
5:35 AM,48.2,48.2,100,30.32,10.0,Calm,Calm,-,N/A,,Overcast,0,2013-11-22 10:35:00
5:55 AM,48.2,48.2,100,30.32,10.0,Calm,Calm,-,N/A,,Overcast,0,2013-11-22 10:55:00
6:15 AM,48.2,48.2,100,30.32,10.0,Calm,Calm,-,N/A,,Overcast,0,2013-11-22 11:15:00
6:35 AM,48.2,48.2,100,30.31,10.0,Calm,Calm,-,N/A,,Overcast,0,2013-11-22 11:35:00
6:55 AM,48.2,48.2,100,30.31,-9999.0,Calm,Calm,-,N/A,,Unknown,0,2013-11-22 11:55:00
7:15 AM,48.2,48.2,100,30.32,10.0,NW,3.5,-,N/A,,Overcast,320,2013-11-22 12:15:00
7:35 AM,50.0,48.2,94,30.32,10.0,Calm,Calm,-,N/A,,Overcast,0,2013-11-22 12:35:00
7:55 AM,51.8,50.0,94,30.31,10.0,Calm,Calm,-,N/A,,Overcast,0,2013-11-22 12:55:00
8:15 AM,51.8,51.8,100,30.31,10.0,Calm,Calm,-,N/A,,Overcast,0,2013-11-22 13:15:00
8:35 AM,53.6,51.8,94,30.31,10.0,Calm,Calm,-,N/A,,Mostly Cloudy,0,2013-11-22 13:35:00
8:55 AM,55.4,51.8,88,30.30,10.0,Calm,Calm,-,N/A,,Mostly Cloudy,0,2013-11-22 13:55:00
9:15 AM,55.4,51.8,88,30.30,10.0,WNW,3.5,-,N/A,,Mostly Cloudy,290,2013-11-22 14:15:00
9:35 AM,55.4,53.6,94,30.30,10.0,Calm,Calm,-,N/A,,Overcast,0,2013-11-22 14:35:00
9:55 AM,57.2,53.6,88,30.30,10.0,WSW,4.6,-,N/A,,Overcast,250,2013-11-22 14:55:00
10:15 AM,59.0,53.6,82,30.29,10.0,Calm,Calm,-,N/A,,Scattered Clouds,0,2013-11-22 15:15:00
10:35 AM,60.8,55.4,82,30.29,10.0,WSW,3.5,-,N/A,,Clear,240,2013-11-22 15:35:00
10:55 AM,60.8,55.4,82,30.28,10.0,SSW,4.6,-,N/A,,Clear,210,2013-11-22 15:55:00
11:15 AM,60.8,55.4,82,30.27,10.0,West,4.6,-,N/A,,Scattered Clouds,270,2013-11-22 16:15:00
11:35 AM,62.6,55.4,77,30.26,10.0,WNW,3.5,-,N/A,,Scattered Clouds,300,2013-11-22 16:35:00
11:55 AM,62.6,55.4,77,30.24,10.0,West,4.6,-,N/A,,Scattered Clouds,280,2013-11-22 16:55:00
12:15 PM,64.4,55.4,73,30.23,10.0,WNW,4.6,-,N/A,,Scattered Clouds,290,2013-11-22 17:15:00
12:35 PM,64.4,55.4,73,30.22,10.0,WNW,3.5,-,N/A,,Mostly Cloudy,290,2013-11-22 17:35:00
12:55 PM,64.4,55.4,73,30.21,10.0,WNW,4.6,-,N/A,,Overcast,290,2013-11-22 17:55:00
1:15 PM,64.4,55.4,73,30.20,10.0,West,3.5,-,N/A,,Overcast,270,2013-11-22 18:15:00
1:35 PM,64.4,55.4,73,30.19,10.0,West,4.6,-,N/A,,Overcast,260,2013-11-22 18:35:00
1:55 PM,64.4,55.4,73,30.19,10.0,West,5.8,-,N/A,,Overcast,260,2013-11-22 18:55:00
2:15 PM,64.4,55.4,73,30.18,10.0,West,8.1,-,N/A,,Overcast,260,2013-11-22 19:15:00
2:35 PM,64.4,55.4,73,30.18,10.0,West,5.8,17.3,N/A,,Overcast,260,2013-11-22 19:35:00
2:55 PM,62.6,55.4,77,30.17,10.0,West,4.6,-,N/A,,Overcast,270,2013-11-22 19:55:00
3:15 PM,62.6,55.4,77,30.17,10.0,West,4.6,-,N/A,,Overcast,270,2013-11-22 20:15:00
3:35 PM,62.6,55.4,77,30.17,10.0,West,4.6,-,N/A,,Overcast,260,2013-11-22 20:35:00
3:55 PM,62.6,55.4,77,30.17,10.0,WSW,6.9,-,N/A,,Overcast,250,2013-11-22 20:55:00
4:15 PM,62.6,55.4,77,30.16,10.0,WSW,6.9,-,N/A,,Overcast,240,2013-11-22 21:15:00
4:35 PM,60.8,55.4,82,30.16,10.0,SW,6.9,-,N/A,,Overcast,230,2013-11-22 21:35:00
4:55 PM,60.8,55.4,82,30.16,10.0,WSW,3.5,-,N/A,,Overcast,240,2013-11-22 21:55:00
5:15 PM,60.8,55.4,82,30.15,10.0,SW,6.9,-,N/A,,Overcast,230,2013-11-22 22:15:00
5:35 PM,60.8,55.4,82,30.15,10.0,WSW,5.8,-,N/A,,Overcast,240,2013-11-22 22:35:00
5:55 PM,60.8,55.4,82,30.15,10.0,WSW,6.9,-,N/A,,Overcast,250,2013-11-22 22:55:00
6:15 PM,59.0,55.4,88,30.15,10.0,WSW,4.6,-,N/A,Rain,Rain,240,2013-11-22 23:15:00
6:35 PM,57.2,57.2,100,30.15,7.0,WSW,5.8,-,N/A,,Drizzle,240,2013-11-22 23:35:00
6:55 PM,57.2,57.2,100,30.14,10.0,WSW,4.6,-,N/A,Rain,Light Rain,250,2013-11-22 23:55:00
7:15 PM,57.2,57.2,100,30.14,10.0,West,3.5,-,N/A,,Overcast,260,2013-11-23 00:15:00
7:35 PM,57.2,57.2,100,30.14,7.0,WSW,4.6,-,N/A,Rain,Rain,240,2013-11-23 00:35:00
7:55 PM,57.2,57.2,100,30.14,7.0,WSW,4.6,-,N/A,Rain,Rain,250,2013-11-23 00:55:00
8:15 PM,55.4,55.4,100,30.15,4.0,West,5.8,-,N/A,,Drizzle,260,2013-11-23 01:15:00
8:35 PM,55.4,55.4,100,30.15,7.0,WSW,5.8,-,0.01,,Light Drizzle,250,2013-11-23 01:35:00
8:55 PM,55.4,55.4,100,30.14,10.0,West,5.8,-,0.01,,Overcast,270,2013-11-23 01:55:00
9:15 PM,55.4,55.4,100,30.14,10.0,West,6.9,-,N/A,,Mostly Cloudy,270,2013-11-23 02:15:00
9:35 PM,55.4,55.4,100,30.13,10.0,West,5.8,-,N/A,,Overcast,280,2013-11-23 02:35:00
9:55 PM,55.4,55.4,100,30.14,10.0,WNW,5.8,-,N/A,,Mostly Cloudy,290,2013-11-23 02:55:00
10:15 PM,55.4,55.4,100,30.14,10.0,West,4.6,-,N/A,,Overcast,280,2013-11-23 03:15:00
10:35 PM,55.4,55.4,100,30.14,10.0,WNW,8.1,-,N/A,,Overcast,290,2013-11-23 03:35:00
10:55 PM,55.4,53.6,94,30.14,10.0,WNW,9.2,-,N/A,,Overcast,300,2013-11-23 03:55:00
11:15 PM,53.6,53.6,100,30.15,7.0,NW,5.8,-,N/A,Rain,Rain,310,2013-11-23 04:15:00
11:35 PM,53.6,53.6,100,30.15,10.0,NW,6.9,-,N/A,,Overcast,320,2013-11-23 04:35:00
11:55 PM,53.6,51.8,94,30.16,10.0,WNW,4.6,-,N/A,,Overcast,300,2013-11-23 04:55:00